This demonstration page uses our WeatherBlox Daily Observations layout. Learn more.

Left ArrowRight Arrow

Hourly Observations for September 4, 2019

Temp ( °F °C ) Dew Point ( °F °C ) Humidity (%) Winds ( mph kmh ) Pressure ( in mb ) Visibility ( mi km ) Precip ( " mm )
12:59 am 00:59 Clear with Mist and Fog 72 22.2 72 22.2 100 100 Calm 30.02 1017 6 10 0.00 0.00
1:59 am 01:59 Clear with Mist and Fog 73 22.8 71 21.7 94 94 Calm 30.01 1016 6 10 0.00 0.00
2:59 am 02:59 Mostly Clear 71 21.7 70 21.1 96 96 Calm 30.01 1016 8 13 0.00 0.00
3:59 am 03:59 Partly Cloudy 71 21.7 70 21.1 96 96 Calm 30.01 1016 7 11 0.00 0.00
4:31 am 04:31 Mostly Clear 71 21.7 70 21.1 96 96 Calm 30.02 1017 7 11 0.00 0.00
4:59 am 04:59 Partly Cloudy 71 21.7 70 21.1 96 96 Calm 30.02 1017 7 11 0.00 0.00
5:59 am 05:59 Partly Cloudy 72 22.2 71 21.7 97 97 Calm 30.03 1017 7 11 0.00 0.00
6:59 am 06:59 Mostly Sunny 72 22 N/A N/A Calm 30.06 1018 7 11 0.00 0.00
7:59 am 07:59 Mostly Sunny 74 23.3 73 22.8 97 97 Calm 30.05 1018 7 11 0.00 0.00
8:59 am 08:59 Mostly Cloudy 77 25 75 23.9 94 94 Calm 30.06 1018 9 14 0.00 0.00
9:59 am 09:59 Mostly Cloudy 80 26.7 74 23.3 82 82 SW 7 11 30.05 1018 10 16 0.00 0.00
10:59 am 10:59 Mostly Cloudy 85 29.4 74 23.3 70 70 S 7 11 30.03 1017 10 16 0.00 0.00
11:59 am 11:59 Mostly Cloudy 86 30 73 22.8 65 65 SSW 9 15 30.01 1016 10 16 0.00 0.00
12:59 pm 12:59 Mostly Cloudy 86 30 71 21.7 61 61 WSW 9 15 29.99 1016 10 16 0.00 0.00
1:59 pm 13:59 Mostly Cloudy 87 30.6 69 20.6 55 55 SW 8 13 29.98 1015 10 16 0.00 0.00
2:59 pm 14:59 Mostly Cloudy 88 31.1 71 21.7 57 57 SW 8 13 29.98 1015 10 16 0.00 0.00
3:59 pm 15:59 Mostly Cloudy 87 30.6 71 21.7 59 59 SSW 6 9 29.97 1015 10 16 0.00 0.00
4:59 pm 16:59 Cloudy 87 30.6 72 22.2 61 61 SSW 9 15 29.96 1015 10 16 0.00 0.00
5:59 pm 17:59 Mostly Cloudy 85 29.4 72 22.2 65 65 SSW 6 9 29.96 1015 10 16 0.00 0.00
6:59 pm 18:59 Mostly Cloudy 84 28.9 74 23.3 72 72 SSW 6 9 29.96 1015 10 16 0.00 0.00
7:59 pm 19:59 Mostly Cloudy 83 28.3 74 23.3 74 74 S 6 9 29.96 1015 10 16 0.00 0.00
8:59 pm 20:59 Mostly Cloudy 82 27.8 76 24.4 82 82 S 6 9 29.97 1015 10 16 0.00 0.00
9:59 pm 21:59 Cloudy 81 27.2 74 23.3 79 79 SSW 6 9 29.97 1015 10 16 0.00 0.00
10:59 pm 22:59 Cloudy 79 26.1 74 23.3 85 85 S 5 7 29.97 1015 10 16 0.00 0.00
11:59 pm 23:59 Cloudy 79 26.1 74 23.3 85 85 S 3 6 29.97 1015 10 16 0.00 0.00

Powered by AerisWeather